F4GQK-13 Weather Reports


Display with metric or nautical units.
time (UTC)temp
F
wind
direction
speed
MPH
gust
MPH
rain 1hr
in
rain 24hr
in
rain mn
in
humidity
%
barometer
mb
20260506124005 57 12 3.0 7.0 0.00 0.00 0.21 76 1011.0
20260506123505 56 307 2.0 8.0 0.00 0.00 0.21 78 1010.9
20260506123006 57 333 5.0 11.0 0.00 0.00 0.21 77 1011.1
20260506122505 57 301 5.0 9.0 0.00 0.00 0.21 76 1011.0
20260506122005 57 344 3.0 9.0 0.00 0.00 0.21 76 1011.0
20260506121505 56 327 2.0 9.0 0.00 0.00 0.21 79 1011.0
20260506121004 56 350 6.0 15.0 0.00 0.00 0.21 79 1010.7
20260506120505 56 339 6.0 9.0 0.00 0.00 0.21 80 1010.9
20260506120005 56 293 3.0 9.0 0.00 0.00 0.21 80 1010.7
20260506115504 56 341 7.0 10.0 0.00 0.00 0.21 77 1011.0
20260506115005 56 7 5.0 9.0 0.00 0.00 0.21 77 1011.0
20260506114505 56 336 8.0 14.0 0.00 0.00 0.21 77 1010.8
20260506114005 56 291 4.0 7.0 0.00 0.00 0.21 80 1010.8
20260506113505 56 331 3.0 8.0 0.00 0.00 0.21 78 1011.0
20260506113005 56 347 3.0 9.0 0.00 0.00 0.21 79 1010.9
20260506112504 55 321 4.0 9.0 0.00 0.00 0.21 82 1011.0
20260506112004 55 335 4.0 9.0 0.00 0.00 0.21 83 1010.8
20260506111504 55 313 6.0 9.0 0.00 0.00 0.21 83 1010.8
20260506111004 55 324 4.0 6.0 0.00 0.00 0.21 85 1010.7
20260506110505 55 3 2.0 6.0 0.00 0.00 0.21 85 1010.9
20260506110005 55 351 5.0 6.0 0.00 0.00 0.21 84 1010.8
20260506105505 55 18 3.0 4.0 0.00 0.00 0.21 85 1010.6
20260506105005 55 347 4.0 10.0 0.00 0.00 0.21 86 1010.7
20260506104504 54 349 3.0 7.0 0.00 0.00 0.21 84 1010.6
20260506104005 55 294 3.0 6.0 0.00 0.00 0.21 86 1010.6
20260506103503 54 311 5.0 9.0 0.00 0.00 0.21 86 1010.6
20260506103004 54 294 3.0 7.0 0.00 0.00 0.21 85 1010.5
20260506102505 54 293 2.0 6.0 0.00 0.00 0.21 86 1010.6
20260506102006 53 18 5.0 8.0 0.00 0.00 0.21 87 1010.7
20260506101505 53 322 4.0 7.0 0.00 0.00 0.21 86 1010.4
20260506101006 53 63 3.0 7.0 0.00 0.00 0.21 87 1010.6
20260506100515 53 334 2.0 8.0 0.00 0.00 0.21 87 1010.5
20260506100005 53 310 7.0 10.0 0.00 0.00 0.21 88 1010.5
20260506095505 52 353 3.0 8.0 0.00 0.00 0.21 88 1010.5
20260506095003 53 314 6.0 8.0 0.00 0.00 0.21 89 1010.5
20260506094505 52 343 7.0 8.0 0.00 0.00 0.21 89 1010.5
20260506094005 52 19 4.0 8.0 0.00 0.00 0.21 88 1010.3
20260506093505 52 8 6.0 11.0 0.00 0.00 0.21 89 1010.6
20260506093005 52 17 4.0 8.0 0.00 0.00 0.21 90 1010.4
20260506092505 52 318 6.0 8.0 0.00 0.00 0.21 90 1010.4
20260506092005 51 323 6.0 10.0 0.00 0.00 0.21 91 1010.6
20260506091505 52 292 5.0 7.0 0.00 0.00 0.21 92 1010.3
20260506091005 52 307 5.0 8.0 0.00 0.00 0.21 92 1010.1
20260506090505 51 345 2.0 3.0 0.00 0.00 0.21 92 1010.2
20260506090005 51 300 7.0 9.0 0.00 0.00 0.21 92 1010.3
20260506085503 50 348 4.0 8.0 0.00 0.00 0.21 92 1010.3
20260506085005 50 344 6.0 8.0 0.00 0.00 0.21 93 1010.2
20260506084504 50 297 6.0 11.0 0.00 0.00 0.21 94 1010.2
20260506084005 49 333 5.0 10.0 0.00 0.00 0.21 94 1010.1
20260506083505 49 280 4.0 13.0 0.00 0.00 0.21 95 1010.2
20260506083005 49 350 9.0 13.0 0.00 0.00 0.21 96 1010.2
20260506082505 49 344 6.0 9.0 0.00 0.00 0.21 97 1010.1
20260506082005 49 347 6.0 10.0 0.00 0.00 0.21 97 1010.2
20260506081505 49 349 2.0 9.0 0.00 0.00 0.21 98 1010.1
20260506081006 49 349 2.0 3.0 0.01 0.00 0.21 98 1010.0
20260506080504 49 335 3.0 8.0 0.01 0.00 0.21 98 1009.9
20260506073504 49 333 3.0 4.0 0.01 0.00 0.21 98 1009.9
20260506073005 48 356 4.0 7.0 0.01 0.00 0.21 98 1010.0
20260506072505 48 2 3.0 10.0 0.01 0.00 0.21 98 1009.7
20260506072005 48 356 9.0 10.0 0.01 0.00 0.21 99 1009.6
20260506071505 48 350 6.0 7.0 0.01 0.00 0.21 99 1009.5
20260506071005 48 355 2.0 6.0 0.00 0.00 0.20 99 1009.6
20260506070505 48 11 3.0 6.0 0.00 0.00 0.20 99 1009.5
20260506062505 49 354 3.0 7.0 0.01 0.00 0.20 99 1008.9
20260506062005 49 339 2.0 6.0 0.01 0.00 0.20 99 1009.0
20260506061504 48 14 5.0 7.0 0.01 0.00 0.20 99 1009.0
20260506061005 49 349 1.0 6.0 0.02 0.00 0.20 99 1008.9
20260506060505 49 341 6.0 8.0 0.02 0.00 0.20 99 1008.7
20260506051004 49 329 5.0 9.0 0.03 0.00 0.18 99 1008.1
20260506050506 50 342 4.0 7.0 0.03 0.00 0.18 99 1008.1
20260506045005 50 307 6.0 7.0 0.03 0.00 0.17 99 1008.2
20260506044505 50 297 5.0 8.0 0.03 0.00 0.17 99 1007.9
20260506044004 50 331 5.0 7.0 0.03 0.00 0.17 99 1008.0
20260506043505 50 341 2.0 7.0 0.02 0.00 0.16 99 1008.0
20260506043005 50 335 3.0 7.0 0.02 0.00 0.16 99 1007.9
20260506042505 50 339 4.0 7.0 0.03 0.00 0.16 99 1007.8
20260506042004 50 2 3.0 9.0 0.03 0.00 0.16 99 1007.7
20260506041504 50 328 5.0 9.0 0.02 0.00 0.15 99 1007.8
20260506041006 50 297 3.0 9.0 0.02 0.00 0.15 99 1007.8
20260506040505 50 331 6.0 8.0 0.02 0.00 0.15 99 1007.7
20260506040005 50 332 4.0 7.0 0.03 0.00 0.15 99 1007.9
20260506035504 50 355 6.0 8.0 0.03 0.00 0.15 99 1007.9
20260506035005 50 1 4.0 7.0 0.02 0.00 0.14 99 1008.0
20260506034505 50 353 3.0 6.0 0.02 0.00 0.14 99 1007.9
20260506034005 50 332 2.0 4.0 0.02 0.00 0.14 99 1007.9
20260506033505 50 331 4.0 9.0 0.02 0.00 0.14 99 1007.9
20260506033005 50 346 4.0 6.0 0.02 0.00 0.14 99 1007.9
20260506032504 50 343 6.0 8.0 0.01 0.00 0.13 99 1008.0
20260506032006 50 4 3.0 7.0 0.01 0.00 0.13 99 1008.1
20260506031505 50 333 4.0 7.0 0.01 0.00 0.13 99 1007.9
20260506031004 50 334 1.0 6.0 0.01 0.00 0.13 99 1008.0
20260506030505 50 335 2.0 4.0 0.02 0.00 0.13 99 1008.0
20260506030006 50 317 2.0 4.0 0.01 0.00 0.12 99 1008.0
20260506025505 50 329 3.0 6.0 0.02 0.00 0.12 99 1008.1
20260506025004 50 352 6.0 8.0 0.02 0.00 0.12 99 1007.9
20260506024504 50 324 3.0 7.0 0.03 0.00 0.12 99 1008.2
20260506024005 50 301 3.0 7.0 0.03 0.00 0.12 99 1008.1
20260506023505 50 343 6.0 8.0 0.04 0.00 0.12 99 1008.0
20260506023004 50 346 4.0 9.0 0.05 0.00 0.12 99 1008.1
20260506022505 51 314 3.0 8.0 0.05 0.00 0.12 99 1007.9
20260506022005 51 296 4.0 7.0 0.06 0.00 0.12 99 1008.1
20260506021506 51 315 4.0 6.0 0.06 0.00 0.12 99 1008.0
20260506021005 51 304 3.0 6.0 0.06 0.00 0.12 99 1008.2
20260506020505 51 338 3.0 7.0 0.05 0.00 0.11 99 1008.0
20260506020005 51 336 3.0 4.0 0.05 0.00 0.11 99 1008.2
20260506015505 51 339 2.0 3.0 0.05 0.00 0.10 99 1008.1
20260506015004 51 273 2.0 4.0 0.05 0.00 0.10 99 1008.1
20260506014504 51 333 2.0 4.0 0.04 0.00 0.09 99 1008.1
20260506014005 51 334 1.0 2.0 0.04 0.00 0.09 99 1008.2
20260506013505 51 324 1.0 2.0 0.03 0.00 0.08 99 1008.1
20260506013004 51 325 1.0 2.0 0.02 0.00 0.07 99 1008.0
20260506012505 51 352 2.0 3.0 0.02 0.00 0.07 99 1008.1
20260506012005 51 324 2.0 3.0 0.01 0.00 0.06 99 1008.1
20260506011505 52 337 5.0 6.0 0.02 0.00 0.06 99 1008.1
20260506011005 52 3 2.0 3.0 0.03 0.00 0.06 99 1008.1
20260506010504 52 327 2.0 3.0 0.03 0.00 0.06 99 1008.1
20260506010006 52 294 1.0 2.0 0.04 0.00 0.06 99 1008.0
20260506005504 52 351 1.0 3.0 0.04 0.00 0.05 99 1008.2
20260506005004 52 350 1.0 2.0 0.04 0.00 0.05 99 1008.1
20260506004505 52 9 2.0 4.0 0.04 0.00 0.05 99 1008.2
20260506004004 52 351 3.0 7.0 0.04 0.00 0.05 99 1008.1
20260506003505 52 329 2.0 7.0 0.04 0.00 0.05 99 1008.1
20260506003004 52 300 5.0 6.0 0.04 0.00 0.05 99 1008.0
20260506002504 52 332 1.0 2.0 0.04 0.00 0.05 99 1007.9
20260506002004 52 347 1.0 2.0 0.03 0.00 0.04 99 1008.3
20260506001504 52 338 2.0 3.0 0.03 0.00 0.04 99 1008.2
20260506001005 52 338 2.0 2.0 0.02 0.00 0.03 99 1008.2
20260506000505 52 313 1.0 2.0 0.02 0.00 0.03 99 1008.3
20260506000005 52 325 2.0 2.0 0.00 0.00 0.01 99 1008.2
20260505235505 52 337 1.0 2.0 0.00 0.00 0.01 99 1008.1
20260505235005 52 315 1.0 4.0 0.00 0.00 0.01 99 1008.2
20260505234504 52 310 2.0 3.0 0.00 0.00 0.01 99 1008.2
20260505234005 52 339 2.0 2.0 0.00 0.00 0.01 99 1008.3
20260505233505 52 344 2.0 4.0 0.00 0.00 0.01 99 1008.2
20260505233004 52 345 1.0 3.0 0.01 0.00 0.01 99 1008.3
20260505232504 52 339 2.0 3.0 0.01 0.00 0.01 99 1008.3
20260505232005 53 329 1.0 2.0 0.01 0.00 0.01 99 1008.3
20260505231504 53 338 1.0 4.0 0.01 0.00 0.01 99 1008.2
20260505231005 53 4 2.0 4.0 0.01 0.00 0.01 99 1008.3
20260505230505 53 331 1.0 2.0 0.01 0.00 0.01 99 1008.4
20260505230005 53 320 1.0 3.0 0.50 0.00 0.01 99 1008.4
20260505225505 53 322 3.0 4.0 0.50 0.00 0.01 99 1008.3
20260505225005 53 306 1.0 1.0 0.50 0.00 0.01 99 1008.3
20260505224505 53 326 1.0 2.0 0.50 0.00 0.01 99 1008.5
20260505224005 53 326 1.0 3.0 0.50 0.00 0.01 99 1008.3
20260505223505 53 299 2.0 3.0 0.50 0.00 0.01 99 1008.4
20260505223005 53 312 1.0 2.0 0.50 0.00 0.00 99 1008.4
20260505222504 53 297 1.0 4.0 0.50 0.00 0.00 99 1008.3
20260505222005 53 300 1.0 3.0 0.50 0.00 0.00 99 1008.3
20260505221504 53 324 2.0 3.0 0.50 0.00 0.00 99 1008.3
20260505221005 53 303 3.0 3.0 0.50 0.00 0.00 99 1008.3
20260505220505 53 306 1.0 2.0 0.50 0.00 0.00 99 1008.4
20260505220005 53 352 2.0 3.0 0.00 0.00 0.50 99 1008.4
20260505215505 53 298 1.0 6.0 0.00 0.00 0.50 99 1008.2
20260505215005 53 302 2.0 3.0 0.01 0.00 0.50 99 1008.2
20260505214504 53 302 2.0 4.0 0.01 0.00 0.50 99 1008.1
20260505214005 53 315 2.0 6.0 0.01 0.00 0.50 99 1008.3
20260505213505 53 0 3.0 6.0 0.01 0.00 0.50 99 1008.2
20260505213005 53 333 1.0 3.0 0.01 0.00 0.50 99 1008.3
20260505212502 53 302 1.0 2.0 0.01 0.00 0.50 99 1008.1
20260505212003 53 333 1.0 2.0 0.01 0.00 0.50 99 1008.3
20260505211504 53 347 3.0 6.0 0.02 0.00 0.50 99 1008.4
20260505211005 53 312 2.0 4.0 0.02 0.00 0.50 99 1008.5
20260505210505 53 341 1.0 4.0 0.02 0.00 0.50 99 1008.3
20260505210006 53 328 4.0 6.0 0.02 0.00 0.50 99 1008.4
20260505205505 53 300 2.0 3.0 0.02 0.00 0.50 99 1008.4
20260505205005 53 328 4.0 6.0 0.01 0.00 0.49 99 1008.4
20260505204505 53 330 0.0 3.0 0.02 0.00 0.49 99 1008.4
20260505204005 53 320 2.0 3.0 0.02 0.00 0.49 99 1008.4
20260505203505 53 320 2.0 3.0 0.03 0.00 0.49 99 1008.4
20260505203006 53 350 3.0 4.0 0.03 0.00 0.49 99 1008.4
20260505202004 53 332 3.0 7.0 0.04 0.00 0.49 99 1008.2
20260505201505 53 328 3.0 3.0 0.03 0.00 0.48 99 1008.4
20260505201004 53 15 2.0 4.0 0.03 0.00 0.48 99 1008.1
20260505200504 53 348 3.0 6.0 0.04 0.00 0.48 99 1008.2
20260505200005 54 347 2.0 4.0 0.04 0.00 0.48 99 1008.3
20260505195505 54 323 2.0 3.0 0.05 0.00 0.48 99 1008.0
20260505195005 54 299 3.0 3.0 0.05 0.00 0.48 99 1007.9
20260505194502 54 357 3.0 3.0 0.05 0.00 0.47 99 1007.9
20260505194005 54 2 2.0 4.0 0.05 0.00 0.47 99 1007.9
20260505193504 54 351 3.0 4.0 0.04 0.00 0.46 99 1008.1
20260505193004 54 3 2.0 4.0 0.05 0.00 0.46 99 1007.8
20260505192505 54 356 6.0 8.0 0.05 0.00 0.45 99 1007.8
20260505192005 54 357 4.0 7.0 0.06 0.00 0.45 99 1007.7
20260505191504 54 6 4.0 7.0 0.08 0.00 0.45 98 1007.6
20260505191004 54 3 2.0 7.0 0.08 0.00 0.45 98 1007.7
20260505190505 54 6 4.0 7.0 0.08 0.00 0.44 98 1007.7
20260505190005 54 38 3.0 3.0 0.09 0.00 0.44 98 1007.5
20260505185505 54 354 3.0 4.0 0.09 0.00 0.43 98 1007.8
20260505185004 54 13 5.0 7.0 0.09 0.00 0.43 98 1007.7
20260505184503 54 356 4.0 6.0 0.08 0.00 0.42 98 1007.7
20260505184004 54 8 9.0 11.0 0.08 0.00 0.42 98 1007.4
20260505183504 54 354 7.0 13.0 0.09 0.00 0.42 98 1007.7
20260505183005 54 354 3.0 9.0 0.08 0.00 0.41 98 1007.5
20260505182504 54 359 6.0 11.0 0.07 0.00 0.40 98 1007.3
20260505182004 55 3 4.0 8.0 0.05 0.00 0.38 98 1007.5
20260505181504 55 13 4.0 8.0 0.04 0.00 0.37 98 1007.5
20260505181005 55 309 6.0 10.0 0.04 0.00 0.37 98 1007.4
20260505180504 55 352 4.0 7.0 0.03 0.00 0.36 98 1007.4
20260505180004 55 357 4.0 6.0 0.03 0.00 0.35 98 1007.6
20260505175505 55 349 4.0 8.0 0.03 0.00 0.34 98 1007.6
20260505175005 55 352 6.0 7.0 0.05 0.00 0.34 98 1007.8
20260505174504 55 15 6.0 10.0 0.06 0.00 0.34 98 1007.5
20260505174003 55 3 4.0 6.0 0.07 0.00 0.34 98 1007.5
20260505173504 55 10 4.0 7.0 0.09 0.00 0.33 98 1007.7
20260505173005 55 349 6.0 9.0 0.10 0.00 0.33 98 1007.4
20260505172505 55 7 6.0 8.0 0.11 0.00 0.33 98 1007.5
20260505172004 55 19 6.0 7.0 0.11 0.00 0.33 98 1007.5
20260505171505 55 352 3.0 7.0 0.12 0.00 0.33 98 1007.7
20260505171004 55 357 8.0 11.0 0.12 0.00 0.33 98 1007.5
20260505170504 55 357 2.0 6.0 0.12 0.00 0.33 98 1007.6
20260505170005 55 358 2.0 8.0 0.11 0.00 0.32 98 1007.6
20260505165504 55 354 5.0 8.0 0.09 0.00 0.30 98 1007.6
20260505165005 55 344 1.0 7.0 0.08 0.00 0.29 98 1007.5
20260505164504 55 345 5.0 8.0 0.07 0.00 0.28 97 1007.6
20260505164005 55 323 2.0 4.0 0.06 0.00 0.26 97 1007.6
20260505163505 55 298 3.0 6.0 0.04 0.00 0.24 97 1007.7
20260505163005 56 346 4.0 6.0 0.02 0.00 0.22 97 1007.7
20260505162504 56 4 2.0 3.0 0.03 0.00 0.22 97 1007.7
20260505162005 56 342 2.0 6.0 0.03 0.00 0.22 97 1007.7
20260505161505 56 359 6.0 7.0 0.03 0.00 0.21 97 1007.6
20260505161005 55 358 4.0 6.0 0.03 0.00 0.21 97 1007.7
20260505160503 55 336 1.0 3.0 0.03 0.00 0.21 97 1007.7
20260505153006 56 353 6.0 7.0 0.02 0.00 0.20 97 1007.7
20260505152505 56 356 3.0 3.0 0.01 0.00 0.19 97 1007.6
20260505152006 57 353 4.0 8.0 0.01 0.00 0.19 96 1007.7
20260505151504 57 5 3.0 6.0 0.01 0.00 0.18 97 1007.5
20260505151004 57 347 5.0 7.0 0.01 0.00 0.18 96 1007.6
20260505150505 58 37 4.0 8.0 0.01 0.00 0.18 96 1007.6
20260505140505 58 38 2.0 4.0 0.03 0.00 0.17 97 1007.8
20260505125005 57 99 2.0 4.0 0.05 0.00 0.13 97 1007.9
20260505124506 57 69 2.0 3.0 0.05 0.00 0.13 97 1007.9